User: anonymous   Login
Location: *
(52.2090°N, 4.1550°W)
Time: 04:10:28
(UTC+00:00)
Language:

Cosmos 1606 - Orbit

View from above orbital plane
View from above orbital plane
View from above satellite
View from above satellite

Ground track
Ground track

The orbit data is extracted from the following two-line orbital elements,

1 15369U 84111A   19262.74799479  .00000241  00000-0  10690-4 0  9992
2 15369  82.5295  30.8417 0015922 278.1014  81.8413 15.16448237905394
Epoch (UTC): 19 September 2019 17:57:06
Eccentricity: 0.0015922
inclination: 82.5295°
perigee height: 505 km
apogee height: 527 km
right ascension of ascending node: 30.8417°
argument of perigee: 278.1014°
revolutions per day: 15.16448237
mean anomaly at epoch: 81.8413°
orbit number at epoch: 90539

The dashed part of the orbit path shows where the satellite is in the earth's shadow,  

DLR